| time (UTC) | temp C | wind direction | speed KPH | gust KPH | rain 1hr cm | rain 24hr cm | rain mn cm | humidity % | barometer mb |
| 20260504044535 | 10 | 44 | 1.6 | 8.0 | 0.00 | 0.00 | 0.00 | 41 | 1011.0 |
| 20260504043025 | 10 | 65 | 3.2 | 17.7 | 0.00 | 0.00 | 0.00 | 39 | 1010.8 |
| 20260504041522 | 10 | 42 | 4.8 | 14.5 | 0.00 | 0.00 | 0.00 | 38 | 1010.6 |
| 20260504040023 | 10 | 32 | 3.2 | 11.3 | 0.00 | 0.00 | 0.00 | 37 | 1010.3 |
| 20260504034519 | 11 | 98 | 4.8 | 14.5 | 0.00 | 0.00 | 0.00 | 36 | 1010.1 |
| 20260504033016 | 11 | 316 | 6.4 | 14.5 | 0.00 | 0.00 | 0.00 | 35 | 1009.9 |
| 20260504031514 | 11 | 299 | 6.4 | 19.3 | 0.00 | 0.00 | 0.00 | 35 | 1009.6 |
| 20260504030013 | 12 | 321 | 6.4 | 20.9 | 0.00 | 0.00 | 0.00 | 35 | 1009.3 |
| 20260504024510 | 12 | 33 | 6.4 | 17.7 | 0.00 | 0.00 | 0.00 | 36 | 1008.9 |
| 20260504023009 | 12 | 37 | 4.8 | 16.1 | 0.00 | 0.00 | 0.00 | 40 | 1008.8 |
| 20260504021507 | 12 | 65 | 6.4 | 16.1 | 0.00 | 0.00 | 0.00 | 40 | 1008.7 |
| 20260504020009 | 12 | 43 | 4.8 | 12.9 | 0.00 | 0.00 | 0.00 | 40 | 1008.6 |
| 20260504014506 | 12 | 40 | 4.8 | 19.3 | 0.00 | 0.00 | 0.00 | 39 | 1008.5 |
| 20260504013002 | 13 | 349 | 6.4 | 20.9 | 0.00 | 0.00 | 0.00 | 37 | 1008.3 |
| 20260504011605 | 13 | 49 | 3.2 | 22.5 | 0.00 | 0.00 | 0.00 | 38 | 1007.9 |
| 20260504010101 | 13 | 338 | 6.4 | 14.5 | 0.00 | 0.00 | 0.00 | 38 | 1007.7 |
| 20260504004559 | 13 | 86 | 6.4 | 17.7 | 0.00 | 0.00 | 0.00 | 38 | 1007.8 |
| 20260504003100 | 13 | 302 | 4.8 | 16.1 | 0.00 | 0.00 | 0.00 | 39 | 1007.6 |
| 20260504001606 | 13 | 20 | 6.4 | 20.9 | 0.00 | 0.00 | 0.00 | 39 | 1007.5 |
| 20260504000055 | 14 | 286 | 6.4 | 19.3 | 0.00 | 0.00 | 0.00 | 39 | 1007.3 |
| 20260503234553 | 14 | 60 | 4.8 | 17.7 | 0.00 | 0.00 | 0.00 | 38 | 1007.1 |
| 20260503233052 | 15 | 91 | 8.0 | 19.3 | 0.00 | 0.00 | 0.00 | 36 | 1007.0 |
| 20260503231550 | 15 | 49 | 9.7 | 19.3 | 0.00 | 0.00 | 0.00 | 36 | 1006.7 |
| 20260503230050 | 15 | 44 | 6.4 | 16.1 | 0.00 | 0.00 | 0.00 | 35 | 1006.6 |
| 20260503224550 | 15 | 59 | 9.7 | 24.1 | 0.00 | 0.00 | 0.00 | 34 | 1006.4 |
| 20260503223049 | 16 | 39 | 6.4 | 17.7 | 0.00 | 0.00 | 0.00 | 34 | 1006.3 |
| 20260503221548 | 16 | 67 | 4.8 | 16.1 | 0.00 | 0.00 | 0.00 | 34 | 1006.4 |
| 20260503220052 | 15 | 316 | 6.4 | 22.5 | 0.00 | 0.00 | 0.00 | 33 | 1006.3 |
| 20260503214547 | 15 | 241 | 6.4 | 16.1 | 0.00 | 0.00 | 0.00 | 34 | 1006.2 |
| 20260503213052 | 15 | 295 | 4.8 | 19.3 | 0.00 | 0.00 | 0.00 | 35 | 1006.2 |
| 20260503211545 | 15 | 301 | 6.4 | 22.5 | 0.00 | 0.00 | 0.00 | 35 | 1006.3 |
| 20260503210052 | 16 | 96 | 6.4 | 14.5 | 0.00 | 0.00 | 0.00 | 35 | 1006.3 |
| 20260503204545 | 16 | 24 | 6.4 | 19.3 | 0.00 | 0.00 | 0.00 | 35 | 1006.3 |
| 20260503203051 | 16 | 49 | 4.8 | 20.9 | 0.00 | 0.00 | 0.00 | 35 | 1006.2 |
| 20260503201544 | 16 | 53 | 6.4 | 14.5 | 0.00 | 0.00 | 0.00 | 34 | 1006.2 |
| 20260503200048 | 16 | 347 | 8.0 | 24.1 | 0.00 | 0.00 | 0.00 | 32 | 1006.1 |
| 20260503194543 | 16 | 40 | 12.9 | 29.0 | 0.00 | 0.00 | 0.00 | 32 | 1005.8 |
| 20260503193047 | 17 | 316 | 6.4 | 16.1 | 0.00 | 0.00 | 0.00 | 31 | 1005.8 |
| 20260503191541 | 17 | 308 | 8.0 | 19.3 | 0.00 | 0.00 | 0.00 | 30 | 1005.6 |
| 20260503190040 | 18 | 343 | 8.0 | 20.9 | 0.00 | 0.00 | 0.00 | 31 | 1005.6 |
| 20260503184551 | 17 | 294 | 6.4 | 16.1 | 0.00 | 0.00 | 0.00 | 31 | 1005.7 |
| 20260503183052 | 18 | 272 | 4.8 | 22.5 | 0.00 | 0.00 | 0.00 | 31 | 1005.8 |
| 20260503181537 | 18 | 301 | 8.0 | 17.7 | 0.00 | 0.00 | 0.00 | 30 | 1005.7 |
| 20260503180036 | 17 | 34 | 6.4 | 19.3 | 0.00 | 0.00 | 0.00 | 32 | 1005.7 |
| 20260503174534 | 17 | 43 | 8.0 | 17.7 | 0.00 | 0.00 | 0.00 | 32 | 1005.8 |
| 20260503173032 | 17 | 290 | 8.0 | 19.3 | 0.00 | 0.00 | 0.00 | 32 | 1005.8 |
| 20260503171529 | 17 | 44 | 4.8 | 17.7 | 0.00 | 0.00 | 0.00 | 35 | 1005.8 |
| 20260503081609 | 11 | 209 | 0.0 | 1.6 | 0.00 | 0.00 | 0.00 | 45 | 1006.5 |
| 20260503071530 | 12 | 210 | 0.0 | 1.6 | 0.00 | 0.00 | 0.00 | 43 | 1006.8 |
| 20260503054517 | 14 | 202 | 0.0 | 0.0 | 0.00 | 0.00 | 0.00 | 39 | 1006.3 |
| 20260503053016 | 13 | 169 | 0.0 | 0.0 | 0.00 | 0.00 | 0.00 | 43 | 1006.4 |